Regional Weather Roundup
Issued by NWS

Home | Current Version | Previous Version | Graphics & Text | Print | Product List | Glossary On
Versions: 1 2 3 4 5 6 7 8 9 10 11 12 13 14 15 16 17 18 19 20 21 22 23 24 25 26 27 28 29 30 31 32 33 34 35 36 37 38 39 40 41 42 43 44 45 46 47 48 49 50
000
ASUS43 KLMK 031010
RWRKY
KENTUCKY REGIONAL WEATHER ROUNDUP
NATIONAL WEATHER SERVICE LOUISVILLE KY
600 AM EDT TUE MAY 03 2016

NOTE "FAIR" INDICATES FEW OR NO CLOUDS BELOW 12,000 FEET
WITH NO SIGNIFICANT WEATHER AND/OR OBSTRUCTIONS TO VISIBILITY.

KYZ001>023-026-027-061>063-070>075-031100-
WESTERN AND SOUTH CENTRAL KENTUCKY

CITY           SKY/WX    TMP DP  RH WIND       PRES   REMARKS
PADUCAH        PTCLDY    53  49  86 CALM      29.98R
HENDERSON      MOCLDY    52  46  82 W3        29.95S
OWENSBORO      CLEAR     51  50  97 W5        29.95S
HOPKINSVILLE   CLOUDY    53  50  89 NW5       29.96S
BOWLING GREEN  CLOUDY    55  50  83 NW3       29.94S
GLASGOW        CLOUDY    54  54 100 CALM      29.93S
$$

KYZ024-025-028>034-038-045-046-053-031100-
NORTH CENTRAL KENTUCKY

CITY           SKY/WX    TMP DP  RH WIND       PRES   REMARKS
LOUISVILLE/SDF CLOUDY    55  49  80 NW8       29.92S
LOUISVILLE/LOU CLOUDY    54  49  83 NW6       29.93S
FORT KNOX      CLOUDY    52  49  89 NW5       29.91S
$$

KYZ035>037-039>044-047>052-055>060-089>105-031100-
NORTHEAST KENTUCKY

CITY           SKY/WX    TMP DP  RH WIND       PRES   REMARKS
LEXINGTON      CLOUDY    55  50  83 CALM      29.90F
COVINGTON      CLOUDY    54  51  90 N5        29.89F
FRANKFORT      MOCLDY    54  49  83 CALM      29.90S
$$

KYZ054-064>069-076>088-106>120-031100-
SOUTHEAST KENTUCKY

CITY           SKY/WX    TMP DP  RH WIND       PRES   REMARKS
JACKSON        CLOUDY    55  53  93 NW7       29.89S
LONDON         LGT RAIN  56  54  93 NW5       29.90S
SOMERSET       CLOUDY    54  52  94 N3        29.93S
MIDDLESBORO    CLOUDY    58  58 100 CALM      29.89R
MONTICELLO     CLOUDY    56  54  93 N10G17    29.94S
$$




USA.gov is the U.S. government's official web portal to all federal, state and local government web resources and services.